ARIANE 5 DEB (SYLDA)

基本信息
目录编号:
44803
目录名称:
ARIANE 5 DEB (SYLDA)
国际标识:
2019-080D
轨道中心:
EARTH
物体状态:
在轨
发射日期:
2019-11-26 UTC
轨道信息
数据来源: 国际轨道数据
星历时间: 2026-07-14T00:43:24+0800
半长轴: 10556.452km
偏心率: 0.3733131
轨道倾角: 5.319°
近地点辐角: 11.921°
升交点赤经: 278.696°
平近点角: 354.937°
近地点: 237.453km
远地点: 8119.177km
周期: 179.902分钟
每日圈数: 8.004345
详细信息
发射场:
FRGUI
轨道高度:
LEO
数据来源:
AOE Integration Group
参考系:
TEME
时间系统:
UTC
历元类型:
SGP4
2D轨道图
3D轨道图
轨道高度分析图
轨道倾角分析图
轨道综合分析图
查看轨道综合分析图